Regional Weather Roundup
Issued by NWS

Home | Current Version | Previous Version | Graphics & Text | Print | Product List | Glossary On
Versions: 1 2 3 4 5 6 7 8 9 10 11 12 13 14 15 16 17 18 19 20 21 22 23 24 25 26 27 28 29 30 31 32 33 34 35 36 37 38 39 40 41 42 43 44 45 46 47 48 49 50
000
ASUS45 KBOI 260810
RWRID

IDAHO REGIONAL WEATHER ROUNDUP
NATIONAL WEATHER SERVICE BOISE ID
200 AM MDT TUE MAY 26 2015

NOTE: "FAIR" INDICATES FEW OR NO CLOUDS BELOW 12000 FEET
WITH NO SIGNIFICANT WEATHER AND/OR OBSTRUCTIONS TO VISIBILITY

IDZ012-014-260900-
SOUTHWEST IDAHO


CITY           SKY/WX    TMP DP  RH WIND       PRES   REMARKS
BOISE          PTCLDY    55  49  80 CALM      29.90S
CALDWELL       PTCLDY    54  43  66 CALM      29.91S
MOUNTAIN HOME  CLOUDY    57  47  70 W7        29.90S
$$

IDZ016-017-260900-
SOUTHCENTRAL IDAHO


CITY           SKY/WX    TMP DP  RH WIND       PRES   REMARKS
BURLEY         PTCLDY    50  44  80 SW7       29.94F
JEROME         CLEAR     52  45  77 SE5       29.95F
TWIN FALLS     MOCLDY    55  44  66 S10       29.93S
$$

IDZ019>023-260900-
SOUTHEAST IDAHO


CITY           SKY/WX    TMP DP  RH WIND       PRES   REMARKS
IDAHO FALLS    CLOUDY    51  45  79 S9        29.96S
POCATELLO      PTCLDY    52  47  83 CALM      29.96F
REXBURG        CLOUDY    53  42  66 S9        29.96S
$$

IDZ006-010-011-018-031-032-260900-
CENTRAL IDAHO MOUNTAINS


CITY           SKY/WX    TMP DP  RH WIND       PRES   REMARKS
MCCALL         CLEAR     46  42  86 N6        29.95F
HAILEY         PTCLDY    46  45  93 NW8       29.99S
STANLEY          N/A     36  34  92 CALM      30.04S
SALMON         CLOUDY    48  46  93 CALM      29.97S
CHALLIS        CLOUDY    50  44  80 NW3       29.98S
$$

IDZ002-004-006-007-026-260900-
NORTHERN IDAHO


CITY           SKY/WX    TMP DP  RH WIND       PRES   REMARKS
LEWISTON       TSTM      61  52  72 S6        29.89R
LOWELL           N/A     54  51  90 N3        29.94R
COEUR D`ALENE  MOCLDY    54  48  82 SE3       29.91S
MULLAN PASS    PTCLDY    43  40  89 S5        29.98F
$$



USA.gov is the U.S. government's official web portal to all federal, state and local government web resources and services.